Location: ????????
(60.5616°N, 46.8254°E)
Time: 15:56:33
(UTC+00:00)

Cosmos 2263 Rocket - Pass Details

Date: 18 February 2020
Orbit: 822 x 850 km, 71.0° (Epoch: 08 April)

Event Time Altitude Azimuth Distance (km) Brightness Sun altitude
Rises 17:55:03 0° 308° (NW) 3,401 6.5 -29.9°
Reaches altitude 10° 17:57:41 10° 316° (NW) 2,469 5.5 -30.2°
Enters shadow 18:02:38 37° 17° (NNE) 1,295 3.2 -30.7°
